Regional Weather Roundup
Issued by NWS

Home | Current Version | Previous Version | Graphics & Text | Print | Product List | Glossary On
Versions: 1 2 3 4 5 6 7 8 9 10 11 12 13 14 15 16 17 18 19 20 21 22 23 24 25 26 27 28 29 30 31 32 33 34 35 36 37 38 39 40 41 42 43 44 45 46 47 48 49 50
000
ASUS43 KDMX 211801
RWRIA

WEATHER ROUNDUP FOR IOWA
NATIONAL WEATHER SERVICE DES MOINES IA
100 PM CDT MON AUG 21 2017

NOTE: "FAIR" INDICATES FEW OR NO CLOUDS BELOW 12,000 FEET WITH NO
SIGNIFICANT WEATHER AND/OR OBSTRUCTIONS TO VISIBILITY.

* - THESE STATIONS ARE NOT NWS STATIONS...THUS NOT UNDER NWS
QUALITY CONTROL.  THEY ALSO DO NOT REPORT WEATHER SUCH
AS PRECIPITATION OR FOG.

IAZ001>003-012>014-020>022-031>034-043>046-211900-
   NORTHWEST IOWA

CITY           SKY/WX    TMP DP  RH WIND       PRES   REMARKS
CARROLL *      PTSUNNY   73  68  83 S14       29.97S
CHEROKEE *     PTSUNNY   76  69  79 S12       29.92S
DENISON *      SUNNY     73  68  83 S13G23    29.98S
LE MARS *      CLOUDY   102 N/A N/A SW5G15    29.93R
ORANGE CITY *  CLOUDY    77  72  83 SW8       29.95S
SHELDON *      CLOUDY    68  64  88 NE10      29.95F
SIOUX CITY     SUNNY     77  70  79 S15G24    29.90F
6HR MIN TEMP:  68; 6HR MAX TEMP:  80;

SPENCER        CLOUDY    69  65  86 N10       29.96R THUNDER
6HR MIN TEMP:  67; 6HR MAX TEMP:  75; 6HR PCP:  0.03;

STORM LAKE *   PTSUNNY   75  68  78 S14G22    29.93F
$$

IAZ055>058-069>071-079>083-090>094-211900-
   SOUTHWEST IOWA

CITY           SKY/WX    TMP DP  RH WIND       PRES   REMARKS
ATLANTIC *     CLOUDY    75  68  78 S7        29.99S
AUDUBON *      PTSUNNY   73  68  83 S10       30.00F
CLARINDA *     CLOUDY    73  68  83 S10G18    30.03F
COUNCIL BLFS * CLOUDY    75  72  88 S13       29.97F
CRESTON *      CLOUDY    73  66  78 S10G20    30.04S
HARLAN  *      SUNNY     75  68  78 S12G18    30.01F
LAMONI         MOSUNNY   76  67  73 S14G23    30.06F
6HR MIN TEMP:  69; 6HR MAX TEMP:  78;

RED OAK *      CLOUDY    77  68  73 SE10G17   29.99F
SHENANDOAH *   CLOUDY    73  68  83 SE17G23   29.99F
$$

IAZ047>049-059>061-072>074-084-211900-
   CENTRAL IOWA

CITY           SKY/WX    TMP DP  RH WIND       PRES   REMARKS
AMES           PTSUNNY   72  67  84 SW9G20    29.95F
6HR MIN TEMP:  67; 6HR MAX TEMP:  77; 6HR PCP:  0.05;

ANKENY *       PTSUNNY   70  66  88 SW8G15    29.97F
BOONE *        CLOUDY    72  66  83 SW9G20    29.96R
CHARITON *     CLOUDY    77  66  69 S14G23    30.02R
DES MOINES     CLOUDY    73  67  81 S8        29.98F
6HR MIN TEMP:  67; 6HR MAX TEMP:  74; 6HR PCP:  0.32;

GRINNELL*      CLOUDY    72  64  73 N8        29.97R
KNOXVILLE *    CLOUDY    73  68  83 S10       29.98S
MARSHALLTOWN   CLOUDY    74  68  81 N5        29.96F
6HR MIN TEMP:  66; 6HR MAX TEMP:  75; 6HR PCP:  0.01;

NEWTON *       CLOUDY    72  66  83 SW13G23   29.97R
PELLA *        CLOUDY    69  68  97 SW8       29.99F
PERRY *        CLOUDY    70  68  96 S9        29.99F
$$

IAZ004>006-015-016-023>025-035-036-211900-
   NORTH CENTRAL IOWA

CITY           SKY/WX    TMP DP  RH WIND       PRES   REMARKS
ALGONA *       RAIN      70  68  94 VRB6      30.00R
CLARION *        N/A     68  66  94 CALM      29.98R
ESTHERVILLE    TSTM      66  66 100 NE5       29.98F FOG
6HR MIN TEMP:  65; 6HR MAX TEMP:  76; 6HR PCP:  0.31;

FORT DODGE *   PTSUNNY   70  63  78 S3        29.96F
MASON CITY     CLOUDY    69  64  84 CALM      30.01F
6HR MIN TEMP:  65; 6HR MAX TEMP:  72;

FOREST CITY *    N/A     70  63  78 CALM      29.99S
WEBSTER CITY * CLOUDY    72  64  78 NE7       29.94R
IOWA FALLS *   PTSUNNY   70  66  87 SE9       29.94F
$$

IAZ007>011-017>019-026>030-037>042-050>054-066-211900-
   NORTHEAST IOWA

CITY           SKY/WX    TMP DP  RH WIND       PRES   REMARKS
CEDAR RAPIDS   CLOUDY    71  67  87 SE9       30.00F
6HR MIN TEMP:  67; 6HR MAX TEMP:  74; 6HR PCP:  0.06;

CHARLES CITY * CLOUDY    72  68  88 SE7       29.99F
CLINTON *      CLOUDY    74  68  81 CALM      30.05S
DECORAH *      CLOUDY    73  66  78 S8        30.00F
DUBUQUE        PTSUNNY   72  67  84 S15       30.05F
6HR MIN TEMP:  67; 6HR MAX TEMP:  76; 6HR PCP: TRACE;

MONTICELLO *   CLOUDY    73  68  83 SE8       30.01F
OELWEIN *      CLOUDY    75  66  73 SE13      29.99F
WATERLOO       CLOUDY    74  63  68 SE12      29.96F
6HR MIN TEMP:  65; 6HR MAX TEMP:  77; 6HR PCP:  0.01;

$$

IAZ064-065-067-068-078-211900-
   EAST CENTRAL IOWA

CITY           SKY/WX    TMP DP  RH WIND       PRES   REMARKS
DAVENPORT      CLOUDY    75  66  73 SW7       30.05F
6HR MIN TEMP:  67; 6HR MAX TEMP:  76; 6HR PCP:  0.11;

IOWA CITY      CLOUDY    74  68  81 SE10      30.01F
6HR MIN TEMP:  70; 6HR MAX TEMP:  75; 6HR PCP:  0.08;

MUSCATINE *    CLOUDY    75  68  78 SE9       30.02F
QUAD CITIES    CLOUDY    77  67  71 SW5       30.02F
6HR MIN TEMP:  70; 6HR MAX TEMP:  78; 6HR PCP:  0.14;

$$

IAZ062-063-075>077-085>089-095>099-211900-
   SOUTHEAST IOWA

CITY           SKY/WX    TMP DP  RH WIND       PRES   REMARKS
BURLINGTON     CLOUDY    74  71  91 S10       30.02F
6HR MIN TEMP:  69; 6HR MAX TEMP:  74; 6HR PCP:  0.42;

FAIRFIELD *    PTSUNNY   79  66  65 S13       30.01F HX  81
FORT MADISON * CLOUDY    73  72  94 S9        30.03F
KEOKUK *       MOSUNNY   73  72  94 S12       30.05R
OSKALOOSA *      N/A     74  67  80 S9        29.97F
OTTUMWA        CLOUDY    78  67  68 S13       29.98F HX  80
6HR MIN TEMP:  69; 6HR MAX TEMP:  79; 6HR PCP: TRACE;

WASHINGTON *   MOSUNNY   75  70  83 SE9       30.02F
$$

ABBREVIATIONS USED IN REMARKS
   TC - TEMPERATURES IN CELSIUS
  WCI - WIND CHILL INDEX
   HX - HEAT INDEX
  VSB - VISIBILITY
$$





USA.gov is the U.S. government's official web portal to all federal, state and local government web resources and services.